Regional Weather Roundup
Issued by NWS Boston, MA

Home | Current Version | Previous Version | Text Only | Print | Product List | Glossary On
Versions: 1 2 3 4 5 6 7 8 9 10 11 12 13 14 15 16 17 18 19 20 21 22 23 24 25 26 27 28 29 30 31 32 33 34 35 36 37 38 39 40 41 42 43 44 45 46 47 48 49 50
000
ASUS41 KBOX 051410
RWRBOX

REGIONAL WEATHER ROUNDUP
NATIONAL WEATHER SERVICE TAUNTON MA
1000 AM EDT SAT SEP 05 2015

NOTE:  "FAIR" INDICATES FEW OR NO CLOUDS BELOW 12,000 FEET WITH NO
SIGNIFICANT WEATHER AND/OR OBSTRUCTIONS TO VISIBILITY.  THE FOLLOWING
OBSERVATION LOCATIONS DO NOT REPORT PRESENT WEATHER...PROVINCETOWN...
SMITHFIELD...BLOCK ISLAND...KEENE...AND OXFORD.

MAZALL-051500-
EASTERN MASSACHUSETTS

CITY           SKY/WX    TMP DP  RH WIND       PRES   REMARKS
BOSTON         MOSUNNY   69  49  48 CALM      30.31S
BEVERLY        SUNNY     69  50  50 NW3       30.30S
LAWRENCE       SUNNY     70  51  51 CALM      30.32F
BEDFORD        SUNNY     68  49  50 CALM      30.30F
BLUE HILL        N/A     68  54  60 VRB3      30.31S
NORWOOD        SUNNY     69  56  62 N3        30.30F
MARSHFIELD     SUNNY     70  57  64 NE7       30.32S
PLYMOUTH       SUNNY     69  59  70 N9        30.31R
TAUNTON        MOSUNNY   70  58  65 NE7       30.30S
NEW BEDFORD    MOSUNNY   70  59  68 NE10      30.29S
$$

MAZALL-051500-
CAPE COD AND THE ISLANDS

CITY           SKY/WX    TMP DP  RH WIND       PRES   REMARKS
FALMOUTH       SUNNY     70  57  64 NE10      30.29S
HYANNIS        SUNNY     71  55  56 NE9       30.28S
CHATHAM        SUNNY     68  55  63 E10       30.30R
PROVINCETOWN     N/A     68  57  68 NE10      30.31R
NANTUCKET      SUNNY     70  57  63 NE15G21   30.28R
MARTHAS VNYRD  SUNNY     72  56  57 E10G20    30.28S
$$

MAZALL-051500-
CENTRAL AND WESTERN MASSACHUSETTS

CITY           SKY/WX    TMP DP  RH WIND       PRES   REMARKS
WORCESTER      SUNNY     67  47  48 E6        30.33S
FITCHBURG      SUNNY     70  46  42 CALM      30.32F
ORANGE         SUNNY     67  49  52 CALM      30.32F
SPRINGFIELD    SUNNY     68  54  60 NW5       30.31S
WESTFIELD      MOSUNNY   68  57  68 N5        30.32F
NORTH ADAMS    SUNNY     67  55  65 CALM      30.32F
PITTSFIELD     SUNNY     67  53  61 CALM      30.32S
$$

RIZALL-051500-
RHODE ISLAND

CITY           SKY/WX    TMP DP  RH WIND       PRES   REMARKS
PROVIDENCE     MOSUNNY   69  57  65 NE7       30.31S
NEWPORT        PTSUNNY   69  58  67 NE8       30.30R
BLOCK ISLAND   SUNNY     68  59  73 NE9       30.29S
SMITHFIELD     SUNNY     66  55  68 NE5       30.31F
WESTERLY       SUNNY     69  58  67 E9        30.30F
$$

CTZALL-051500-
CONNECTICUT

CITY           SKY/WX    TMP DP  RH WIND       PRES   REMARKS
BRADLEY INTL   SUNNY     69  55  60 N6        30.31S
HARTFORD       SUNNY     70  52  52 CALM      30.31S
BRIDGEPORT     SUNNY     70  56  61 E12       30.30R
DANBURY        SUNNY     69  50  50 E8        30.31F
GROTON         MOSUNNY   70  58  65 NE10      30.29S
NEW HAVEN      MOSUNNY   70  53  54 NE8       30.30S
CHESTER        NOT AVBL
MERIDEN        SUNNY     71  50  47 NE6       30.30F
WILLIMANTIC    SUNNY     69  53  56 VRB3      30.31S
OXFORD         SUNNY     70  48  46 E7        30.32F
$$

MEZ002-015-021-024-NHZ003-005-008-011-012-014-VTZ005-008-051500-
NORTHERN NEW ENGLAND

CITY           SKY/WX    TMP DP  RH WIND       PRES   REMARKS
PORTLAND ME    MOSUNNY   70  58  65 W7        30.30S
BANGOR ME      MOSUNNY   66  55  67 CALM      30.29R
CONCORD NH     SUNNY     65  54  67 VRB3      30.31F
MANCHESTER NH  MOSUNNY   68  52  56 CALM      30.30S
NASHUA NH      SUNNY     67  52  58 NW3       30.32F
PORTSMOUTH NH  MOSUNNY   69  52  54 W5        30.30S
JAFFREY NH     SUNNY     67  51  56 VRB3      30.33S
KEENE NH       SUNNY     63  52  67 CALM      30.33F
BURLINGTON VT  MOSUNNY   72  58  61 S13       30.27F
MT. WASHINGTON MOSUNNY   57  28  33 E5          N/A
$$

NYZ052-076-051500-
EASTERN NEW YORK

CITY           SKY/WX    TMP DP  RH WIND       PRES   REMARKS
ALBANY         SUNNY     71  55  56 S8        30.30F
NEW YORK CITY  MOSUNNY   71  59  65 NE15      30.28R
$$

ANZALL-051500-
MARINE OBSERVATIONS

STATION/POSITION TIME  TEMP    WIND        PRES    VSBY  WAVE
                       AIR SEA DIR/SP/G                  HT/PER
                 (UTC) (F)     (DEG/KT/KT) (MB)    (MI)  (FT/S)
BOSTON BUOY      1350   66 68   30/  6/  8 1026.5R         3/ 6
BUZZARDS BAY     1300           60/ 13/ 15 1026.3F
NANTUCKET SOUND  1350   67 72   40/ 12/ 14 1025.1R         1/ 6
MASS BAY-STELLWA 1304   65 67  360/  8/ 10   N/A    1 7/8  2/ 8
ISLE OF SHOALS   1400   64     290/  2/  3 1025.8S
S OF BLOCK IS    1308      73                N/A           3/ 4
$$

......................KEY.........................
  SKY/WX - SKY CONDITION/PRESENT WEATHER
  TMP    - TEMPERATURE IN FAHRENHEIT
  DWPT   - DEWPOINT IN FAHRENHEIT
  RH     - RELATIVE HUMIDITY IN PERCENT
  WIND   - DIRECTION AND SPEED IN MPH
  PRES   - MEAN SEA LEVEL PRESSURE IN INCHES OF HG
  WCI    - WIND CHILL INDEX
  VSB    - VISIBILITY IN MILES
  HX     - HEAT INDEX
  TC     - TEMPERATURE IN CELSIUS
  VRB    - VARIABLE WIND DIRECTION
  N/A    - NOT AVAILABLE


USA.gov is the U.S. government's official web portal to all federal, state and local government web resources and services.